Regional Weather Roundup
Issued by NWS Wakefield, VA

Home | Current Version | Previous Version | Graphics & Text | Print | Product List | Glossary On
Versions: 1 2 3 4 5 6 7 8 9 10 11 12 13 14 15 16 17 18 19 20 21 22 23 24 25 26 27 28 29 30 31 32 33 34 35 36 37 38 39 40 41 42 43 44 45 46 47 48 49 50
000
ASUS41 KAKQ 131415
RWRAKQ

REGIONAL WEATHER ROUNDUP
NATIONAL WEATHER SERVICE WAKEFIELD VA
900 AM EST SAT FEB 13 2016

Note: "fair" indicates few or no clouds below 12,000 feet with no
significant weather and/or obstructions to visibility. * = Denotes
station may not report precipitation (e.g., rain,snow,etc.),
thunder or fog.

VAZ042-051-052>054-056-131500-
NORTHERN VIRGINIA

CITY           SKY/WX    TMP DP  RH WIND       PRES   REMARKS
WASH NATIONAL  FAIR      21  10  62 NW16G28   30.24R WCI   7
DULLES         PTSUNNY   20  -1  40 NW25G33   30.22R WCI   2
FORT BELVOIR   FAIR      23   0  36 NW23G31   30.24R WCI   7
QUANTICO       FAIR      23   0  36 N23G33    30.27R WCI   7
FREDERICKSBRG* FAIR      23   3  41 NW17G25   30.24R WCI   9
STAFFORD*      CLOUDY    22   0  38 W15       30.28R WCI   9
WARRENTON      CLOUDY    22  10  59 NW15G22   30.23R WCI   9
CULPEPER*      CLOUDY    20   4  51 NW12      30.26R WCI   8
MANASSAS*      NOT AVBL
LEESBURG*      PTSUNNY   23   5  46 NW26G33   30.23R WCI   6
WINCHESTER     PTSUNNY   18   1  49 NW23G30   30.22R WCI   0
FRONT ROYAL*   FAIR      18   1  49 NW18G29   30.20R WCI   2
LURAY*         PTSUNNY   18   0  45 W6G21     30.21R
$$

VAZ048-049-060>072-079>083-131500-
CENTRAL AND SOUTH CENTRAL VIRGINIA

CITY           SKY/WX    TMP DP  RH WIND       PRES   REMARKS
RICHMOND       FAIR      25  -2  31 NW16G26   30.24R WCI  12
CHESTERFIELD*  FAIR      27  -6  24 NW18G28   30.25R WCI  13
PETERSBURG*    FAIR      28  -9  20 NW14G20   30.26R WCI  17
HANOVER        FAIR      25   0  33 NW15      30.25R WCI  13
TAPPAHANNOCK*  FAIR      26  -1  31 NE13G20   30.23R WCI  14
QUINTON*       FAIR      25  -1  32 NW7       30.24R
CHARLOTTSVILLE FAIR      21  -3  35 VRB7G16   30.23R
GORDONSVILLE*  FAIR      22  -3  34 NW14G22   30.23R WCI   9
ORANGE*        FAIR      23  -2  33 W13G25    30.25R WCI  11
LOUISA*        PTSUNNY   25   0  33 NW10      30.22R WCI  15
BUMPASS*       FAIR      23  -2  33 NW10G17   30.23R WCI  12
FARMVILLE*     FAIR      25  -4  27 SW3       30.25R
CREWE*         CLOUDY    26   0  31 NW12      30.24R WCI  16
FORT PICKETT*  FAIR      26  -2  29 NW14      30.23R WCI  14
CHASE CITY*    FAIR      24  -5  27 W13G20    30.26R WCI  13
CLARKSVILLE*   FAIR      27   0  31 NW14G25   30.27R WCI  15
SOUTH HILL*    FAIR      26   1  34 W9        30.31R
LAWRENCEVILLE* FAIR      27   0  31 NW9G16    30.25R
EMPORIA*       FAIR      28   1  31 NW14G21   30.27R WCI  17
$$

VAZ088>098-131500-
SOUTHEAST VIRGINIA

CITY           SKY/WX    TMP DP  RH WIND       PRES   REMARKS
NORFOLK        FAIR      27   8  44 N16G31    30.21R WCI  15
VIRGINIA BEACH FAIR      30  11  45 NW26G37   30.20R WCI  16
NORFOLK NAVAL  FAIR      28   9  44 NW28      30.22R WCI  13
WEST POINT*    FAIR      26  -3  28 NW12G23   30.25R WCI  15
SALUDA*        PTSUNNY   25   3  39 NW14G23   30.21R WCI  13
NEWPORT NEWS   FAIR      27   6  41 NW14G22   30.22R WCI  16
LANGLEY AFB    FAIR      26   5  40 NW15G22   30.21R WCI  14
FORT EUSTIS    FAIR      27   4  38 NW14G24   30.21R WCI  15
WILLIAMSBURG*  FAIR      28   5  37 N14G20    30.23R WCI  17
HR EXEC AP*    FAIR      28  12  50 N9G17     30.23R
FRANKLIN*      FAIR      27   8  44 NW14G20   30.24R WCI  15
US460-WAKEFLD  FAIR      27   1  32 NW8G18    30.24R
$$

VAZ020-022-025-037-045-131500-
WEST CENTRAL AND SOUTHWEST VIRGINIA

CITY           SKY/WX    TMP DP  RH WIND       PRES   REMARKS
STAUNTON*      FAIR      21  -4  33 NW17G23   30.22R WCI   7
WAYNESBORO*    FAIR      16  -8  33 NW17G33   30.16R WCI   0
HOT SPRINGS VA CLOUDY     5  -3  70 W18G30    29.95R WCI -15
LYNCHBURG      FAIR      19  -5  34 W9        30.24R
DANVILLE       FAIR      26  -1  31 NW16G24   30.29R WCI  14
SOUTH BOSTON*  FAIR      25  -3  30 NW15G25   30.28R WCI  13
MARTINSVILLE   FAIR      21  -1  38 NW22G31   30.29R WCI   4
ROANOKE        FAIR      19  -2  39 W21G28    30.27R WCI   3
BLACKSBURG     CLOUDY    14   5  69 W16       30.22R WCI  -2
DUBLIN*        CLOUDY    16   2  56 NW21G29   30.22R WCI  -2
MARION*        CLOUDY    14   3  62 W29G40    30.21R HAZE    WCI  -7
HILLSVILLE*    CLOUDY    12   4  68 NW20G26   30.11R WCI  -6
RICHLANDS*     LGT SNOW  11   3  70 NW10G18   30.24R WCI  -2
WISE*          LGT SNOW  14   5  67 NW12      30.28R WCI   0
ABINGDON*      CLOUDY    18   6  59 NW10      30.29R WCI   6
$$

MDZ021>025-VAZ099-100-131500-
SOUTHERN MARYLAND AND THE DELMARVA PENINSULA

CITY           SKY/WX    TMP DP  RH WIND       PRES   REMARKS
PATUXENT RIVER PTSUNNY   24   4  42 NW24G31   30.20R WCI   8
BAY BRIDGE APT   N/A     25   3  39 NW20G28   30.19R WCI  11
LEONARDTOWN    MOSUNNY   23   3  42 NW10G29   30.22  WCI  12
DOVER          SUNNY     23   2  40 NW21G31   30.12R WCI   8
GEORGETOWN     SUNNY     24   3  40 NW16G26   30.14R WCI  11
EASTON         MOSUNNY   25   1  36 NW25G36   30.20R WCI   9
CAMBRIDGE      MOSUNNY   23   3  42 NW18G25   30.18R WCI   9
SALISBURY      PTSUNNY   24   7  48 NW15G22   30.15R WCI  11
OCEAN CITY     SUNNY     25   7  46 NW21G30   30.14R WCI  11
WALLOPS ISLAND FAIR      26   7  44 NW20G36   30.16R WCI  12
ACCOMACK*      FAIR      27   3  36 NW25G33   30.17R WCI  11
$$

NCZ012>017-030>032-131500-
NORTH CENTRAL AND EASTERN NORTH CAROLINA

CITY           SKY/WX    TMP DP  RH WIND       PRES   REMARKS
ROANOKE RAPIDS FAIR      30   1  29 NW17      30.25R WCI  18
RALEIGH        MOSUNNY   29   6  38 N9        30.28R
ELIZABETH CITY SUNNY     28  18  66 NW21G31   30.21R WCI  15
AHOSKIE*       NOT AVBL
EDENTON*       SUNNY     31  21  65 N14G22    30.22R WCI  21
CURRITUCK*     NOT AVBL
KILL DEVIL HLS NOT AVBL
MANTEO         NOT AVBL
CAPE HATTERAS  SUNNY     36  23  59 NW10G17   30.18R
TARBORO*       FAIR      31   5  34 NW14G31   30.27R WCI  20
GOLDSBORO      SUNNY     32  16  51 N17       30.24R WCI  21
WASHINGTON     SUNNY     31  14  48 NW9G23    30.23R
GREENVILLE     SUNNY     32  12  43 N15G21    30.25R WCI  22
NEW BERN       SUNNY     33  24  69 N7        30.24R
WILMINGTON     SUNNY     36  25  64 N9G21     30.24R
$$

VAZ048-131500-
ELSEWHERE

CITY           SKY/WX    TMP DP  RH WIND       PRES   REMARKS
HARRISBURG PA  PTSUNNY   17   2  51 NW29G38   30.15R HAZE    WCI  -2
BALTIMORE      FLURRIES  21   1  41 NW20G29   30.19R WCI   6
ANNAPOLIS      PTSUNNY   23   6  48 NW15G22   30.19R WCI  10
ANDREWS AFB    LGT SNOW  19  12  73 NW17      30.21R VSB 1   WCI   4
PHILADELPHIA   MOSUNNY   22  -1  36 NW22G33   30.11R WCI   6
HENDERSON NC   SUNNY     26  -3  28 NW15G21   30.27R WCI  13
GREENSBORO     MOSUNNY   26   2  35 NW12G20   30.25R WCI  16
ROCKY MOUNT    SUNNY     29   7  39 NW20G31   30.27R WCI  16
$$

VAZ100-131500-
MARINE

STATION/POSITION TIME  TEMP    WIND        PRES    WAVE   SWELL
                       AIR SEA DIR/SP/G            HT/PER HT/PER
                 (UTC) (F)     (DEG/KT/KT) (MB)    (FT/S) (FT/S)
BRANDYWINE LGT   1300   24     330/ 22/ 36 1018.7R
CAPE MAY NJ      1300   24 36  320/ 25/ 32 1018.4R
LEWES DE         1300   25 38  310/ 25/ 29 1019.4R
15NM E FENWICK I 1350   26 43              1019.0R   7/ 5
OCEAN-CITY-INLET 1300   25 36  320/ 17/ 23 1019.0R
WACHAPREAGUE VA  1300   26 34  320/  7/ 26 1021.1R
THOMAS POINT MD  1400   22 37  310/ 21/ 28 1022.7R
GOOSES REEF MD   1400   22 37  300/ 17/ 23 1023.7R   3/ 3
COVE POINT MD    1300   21     330/ 15/ 22 1022.8R
SOLOMONS ISLAND  1300   23 38  310/ 11/ 19   N/A
BISHOPS HEAD MD  1306   23 30  310/ 20/ 26 1021.0R
PINEY POINT MD   1300          330/ 29/ 31   N/A
POTOMAC MD       1400   25 38  330/ 25/ 31 1021.6R   3/ 4
CAMBRIDGE MD     1300   24 36  310/ 19/ 29 1020.7R
LEWISETTA VA     1300   24 35  340/ 17/ 24 1022.3R
RAPPAHANNOCK LGT 1300          310/ 34/ 38 1021.5R
STINGRAY PT      1400   26 39  330/ 25/ 33 1022.4R   3/ 3
YORK RVR RNG VA  1300   26     330/ 22/ 28 1021.8R
YORKTOWN VA      1300   26 40  330/ 23/ 26 1022.2R
JAMESTOWN VA     1400   26 40  320/ 17/ 25   N/A     1
DOMINION TERM VA 1300   28     340/  7/ 15 1022.2R
KIPTOPEKE VA     1300      38  320/ 30/ 36   N/A
CHES BAY BRIDGE  1300   27 40  300/ 26/ 31 1021.6R
CAPE HENRY VA    1300   27     320/ 29/ 35   N/A
CHESAPEAKE LGHT  1300   28     330/ 32/ 36 1021.2R
WILLOUBY STN VA  1300   27     320/ 15/ 19 1022.9R
CAPE HENRY BUOY  1328      42                N/A     6/ 5
1ST LANDING BUOY 1400      40                N/A     4/ 3
CAPE CHARLES BUO 1326      42                N/A     5/ 4   2/12
OFFSHORE WE BUOY 1321      44                N/A     7/ 5   2/11
64NM E OF VA BCH 1350   32 48  320/ 29/ 37 1019.4R   8/ 7   2/10
DUCK PIER NC     1300   29     330/ 19/ 23 1020.3R
44100 DUCK FRF   1324      45                N/A     4/ 4   2/11
44056 DUCK FRF   1311      42                N/A     2/11   2/11
OREGON INLET NC  1300   31 40  320/  9/ 13 1020.7R
HATTERAS NC      1300   33 44  330/ 16/ 18 1020.6R
DIAMOND SHLS NC  1350   38 71  340/ 23/ 29 1021.1R   5/ C1F1C2F2C3F3C4F4C5F5C6F6C7F7C8M1C9!


USA.gov is the U.S. government's official web portal to all federal, state and local government web resources and services.